GW3570 Weather Reports


Display with metric or nautical units.
time (UTC)temp
F
wind
direction
speed
MPH
gust
MPH
rain 1hr
in
rain 24hr
in
rain mn
in
humidity
%
barometer
mb
20260505180933 49 318 3.0 3.0 0.05 0.28 0.28 86 1012.9
20260505180429 50 341 2.0 3.0 0.00 0.27 0.27 84 1012.3
20260505175926 50 223 0.0 1.0 0.00 0.27 0.27 83 1012.6
20260505175422 50 331 4.0 5.0 0.00 0.27 0.27 82 1012.4
20260505174918 50 216 0.0 0.0 0.00 0.27 0.27 82 1012.3
20260505174416 50 331 1.0 2.0 0.00 0.27 0.27 83 1012.2
20260505173912 50 222 0.0 0.0 0.00 0.27 0.27 83 1012.7
20260505173408 50 294 2.0 2.0 0.00 0.27 0.27 82 1012.5
20260505172906 51 1 4.0 5.0 0.00 0.27 0.27 82 1012.6
20260505172404 51 1 5.0 8.0 0.00 0.27 0.27 82 1013.0
20260505171903 51 358 5.0 6.0 0.00 0.27 0.27 84 1012.8
20260505171400 51 359 5.0 6.0 0.00 0.27 0.27 82 1012.6
20260505170856 52 298 2.0 2.0 0.00 0.27 0.27 84 1012.2
20260505170354 52 233 2.0 2.0 0.00 0.27 0.27 84 1011.9
20260505165849 52 299 2.0 3.0 0.00 0.27 0.27 84 1011.7
20260505165344 52 48 1.0 2.0 0.00 0.27 0.27 86 1011.9
20260505164840 52 245 1.0 2.0 0.00 0.27 0.27 85 1011.8
20260505164337 52 301 3.0 3.0 0.00 0.27 0.27 85 1012.1
20260505163836 52 336 3.0 5.0 0.00 0.27 0.27 85 1011.5
20260505163334 52 160 1.0 1.0 0.00 0.27 0.27 86 1011.8
20260505162832 52 199 0.0 0.0 0.00 0.27 0.27 87 1012.0
20260505162328 52 191 0.0 1.0 0.00 0.27 0.27 88 1012.0
20260505161825 51 255 1.0 1.0 0.00 0.27 0.27 89 1012.0
20260505161322 51 265 1.0 2.0 0.00 0.27 0.27 90 1011.6
20260505160820 50 193 0.0 0.0 0.07 0.27 0.27 90 1011.8
20260505160318 50 321 0.0 0.0 0.07 0.27 0.27 90 1012.0
20260505153256 51 13 3.0 3.0 0.00 0.23 0.23 83 1013.4
20260505152754 51 258 1.0 2.0 0.00 0.23 0.23 82 1013.4
20260505152249 51 337 5.0 6.0 0.00 0.23 0.23 81 1013.2
20260505151744 52 348 3.0 5.0 0.00 0.23 0.23 81 1012.7
20260505151242 52 347 4.0 6.0 0.00 0.23 0.23 82 1012.4
20260505150738 52 314 3.0 5.0 0.00 0.23 0.23 81 1011.9
20260505150235 53 340 2.0 2.0 0.00 0.23 0.23 82 1011.6
20260505140200 51 149 1.0 2.0 0.00 0.23 0.23 86 1010.6
20260505130124 50 330 2.0 2.0 0.00 0.23 0.23 88 1010.7
20260505124613 50 240 3.0 3.0 0.00 0.23 0.23 90 1010.0
20260505124110 50 85 1.0 2.0 0.00 0.23 0.23 91 1010.0
20260505123606 50 232 2.0 3.0 0.00 0.23 0.23 92 1009.9
20260505123103 50 173 0.0 0.0 0.00 0.23 0.23 92 1009.9
20260505122559 50 188 2.0 3.0 0.00 0.23 0.23 93 1009.7
20260505122056 49 189 0.0 0.0 0.00 0.23 0.23 94 1009.8
20260505121553 50 173 2.0 2.0 0.00 0.23 0.23 94 1009.7
20260505121049 49 157 2.0 2.0 0.00 0.23 0.23 94 1010.1
20260505120546 50 218 0.0 0.0 0.00 0.23 0.23 95 1009.9
20260505120042 49 136 2.0 2.0 0.00 0.23 0.23 95 1009.7
20260505115536 49 162 2.0 3.0 0.00 0.23 0.23 95 1009.9
20260505115034 50 215 0.0 1.0 0.00 0.23 0.23 95 1010.6
20260505114531 50 237 1.0 1.0 0.00 0.23 0.23 94 1010.6
20260505114027 50 347 3.0 5.0 0.00 0.23 0.23 94 1010.7
20260505113524 50 322 2.0 2.0 0.00 0.23 0.23 94 1010.7
20260505113020 50 281 3.0 5.0 0.00 0.23 0.23 94 1010.2
20260505112516 50 358 1.0 2.0 0.00 0.23 0.23 94 1009.9
20260505112014 49 249 2.0 3.0 0.00 0.23 0.23 94 1009.5
20260505111508 49 186 0.0 1.0 0.00 0.23 0.23 94 1009.1
20260505111005 49 32 2.0 2.0 0.00 0.23 0.23 94 1008.7
20260505110501 49 350 3.0 5.0 0.00 0.23 0.23 94 1008.8
20260505101932 50 276 3.0 5.0 0.00 0.23 0.23 94 1007.9
20260505101426 50 237 1.0 1.0 0.00 0.23 0.23 93 1008.2
20260505100922 51 134 1.0 1.0 0.00 0.23 0.23 93 1008.5
20260505100420 51 217 3.0 3.0 0.07 0.23 0.23 93 1008.6
20260505095915 51 18 3.0 5.0 0.12 0.23 0.23 93 1008.8
20260505095413 52 49 3.0 3.0 0.12 0.22 0.22 92 1009.6
20260505094908 52 188 3.0 5.0 0.19 0.21 0.21 92 1010.8
20260505094406 52 217 2.0 2.0 0.24 0.20 0.20 92 1010.6
20260505093901 52 295 3.0 3.0 0.24 0.18 0.18 92 1010.0
20260505093359 53 350 5.0 6.0 0.35 0.16 0.16 91 1009.7
20260505092856 53 311 5.0 6.0 0.47 0.13 0.13 90 1009.9
20260505092354 53 351 10.0 14.0 0.42 0.09 0.09 87 1009.5
20260505091851 55 327 8.0 15.0 0.24 0.04 0.04 85 1009.2
20260505091349 57 302 5.0 7.0 0.07 0.01 0.01 82 1008.9
20260505090847 60 1 9.0 11.0 0.00 0.00 0.00 75 1008.0
20260505090345 61 321 3.0 6.0 0.00 0.00 0.00 68 1007.5
20260505085841 62 338 9.0 11.0 0.00 0.00 0.00 66 1006.8
20260505085339 64 6 8.0 11.0 0.00 0.00 0.00 64 1006.6
20260505084837 66 4 18.0 22.0 0.00 0.00 0.00 65 1006.1
20260505084335 68 311 5.0 6.0 0.00 0.00 0.00 70 1005.5
20260505083832 68 334 3.0 3.0 0.00 0.00 0.00 69 1005.5
20260505083330 67 9 4.0 5.0 0.00 0.00 0.00 71 1005.2
20260505082826 66 7 4.0 5.0 0.00 0.00 0.00 74 1005.0
20260505082322 67 68 1.0 2.0 0.00 0.00 0.00 74 1004.7
20260505081819 67 139 1.0 1.0 0.00 0.00 0.00 73 1004.5
20260505081316 68 176 0.0 0.0 0.00 0.00 0.00 71 1004.5
20260505080812 68 205 0.0 0.0 0.00 0.00 0.00 71 1004.5
20260505080309 68 201 1.0 1.0 0.00 0.00 0.00 69 1004.3
20260505075804 68 197 2.0 2.0 0.00 0.00 0.00 70 1004.6
20260505075304 68 182 0.0 1.0 0.00 0.00 0.00 69 1004.3
20260505074758 68 180 0.0 0.0 0.00 0.00 0.00 70 1004.2
20260505074256 68 214 1.0 2.0 0.00 0.00 0.00 69 1004.2
20260505073753 68 185 2.0 2.0 0.00 0.00 0.00 71 1004.5
20260505073251 68 168 1.0 2.0 0.00 0.00 0.00 71 1004.5
20260505072747 68 189 2.0 2.0 0.00 0.00 0.00 69 1004.7
20260505072244 68 178 2.0 2.0 0.00 0.00 0.00 70 1004.7
20260505071739 68 186 2.0 2.0 0.00 0.00 0.00 71 1004.8
20260505071236 67 195 1.0 1.0 0.00 0.00 0.00 73 1005.0
20260505070734 67 178 0.0 0.0 0.00 0.00 0.00 75 1004.9
20260505070230 67 187 0.0 0.0 0.00 0.00 0.00 73 1005.1
20260505065726 67 190 0.0 0.0 0.00 0.00 0.00 72 1005.1
20260505065223 68 176 0.0 0.0 0.00 0.00 0.00 73 1005.3
20260505064720 68 177 0.0 0.0 0.00 0.00 0.00 71 1005.5
20260505064218 68 178 0.0 0.0 0.00 0.00 0.00 70 1005.6
20260505063715 68 189 0.0 0.0 0.00 0.00 0.00 70 1005.6
20260505063211 68 231 0.0 0.0 0.00 0.00 0.00 69 1005.7
20260505062707 68 127 1.0 1.0 0.00 0.00 0.00 70 1005.9
20260505062205 69 203 0.0 0.0 0.00 0.00 0.00 67 1005.8
20260505061702 69 184 4.0 5.0 0.00 0.00 0.00 67 1005.8
20260505061200 69 141 2.0 3.0 0.00 0.00 0.00 68 1005.7
20260505060657 69 31 2.0 2.0 0.00 0.00 0.00 70 1005.3
20260505060154 69 113 1.0 1.0 0.00 0.00 0.00 70 1005.5
20260505055649 69 210 1.0 1.0 0.00 0.00 0.00 68 1005.1
20260505055146 69 214 1.0 2.0 0.00 0.00 0.00 68 1004.9
20260505054643 69 201 1.0 2.0 0.00 0.00 0.00 70 1004.5
20260505054141 69 193 2.0 2.0 0.00 0.00 0.00 69 1004.3
20260505053639 69 169 1.0 1.0 0.00 0.00 0.00 69 1004.2
20260505053135 69 214 2.0 2.0 0.00 0.00 0.00 67 1004.2
20260505052632 69 214 2.0 2.0 0.00 0.00 0.00 67 1004.0
20260505052129 69 179 1.0 2.0 0.00 0.00 0.00 69 1004.2
20260505051626 69 186 1.0 2.0 0.00 0.00 0.00 67 1004.4
20260505051124 70 195 0.0 0.0 0.00 0.00 0.00 69 1004.5
20260505050622 70 198 2.0 2.0 0.00 0.00 0.00 67 1004.6
20260505050120 70 184 1.0 2.0 0.00 0.00 0.00 68 1004.6
20260505041549 71 226 1.0 1.0 0.00 0.00 0.00 62 1005.6
20260505041047 71 191 3.0 3.0 0.00 0.00 0.00 62 1005.3
20260505040544 72 204 2.0 2.0 0.00 0.00 0.00 64 1005.6
20260505040041 71 184 4.0 6.0 0.00 0.00 0.00 62 1005.5
20260505035537 71 197 2.0 3.0 0.00 0.00 0.00 63 1005.6
20260505035034 72 188 3.0 3.0 0.00 0.00 0.00 63 1005.7
20260505034530 72 217 1.0 1.0 0.00 0.00 0.00 63 1005.7
20260505034027 72 202 0.0 0.0 0.00 0.00 0.00 62 1005.8
20260505033524 72 194 0.0 0.0 0.00 0.00 0.00 62 1005.9
20260505033023 72 194 0.0 0.0 0.00 0.00 0.00 63 1005.9
20260505032520 72 188 1.0 1.0 0.00 0.00 0.00 63 1005.7
20260505032016 73 200 1.0 1.0 0.00 0.00 0.00 61 1005.8
20260505031514 73 214 2.0 2.0 0.00 0.00 0.00 59 1005.6
20260505031010 73 181 2.0 2.0 0.00 0.00 0.00 59 1005.7
20260505030507 73 204 4.0 6.0 0.00 0.00 0.00 59 1005.2
20260505030003 73 183 3.0 3.0 0.00 0.00 0.00 59 1005.2
20260505025459 73 206 3.0 3.0 0.00 0.00 0.00 61 1005.3
20260505024958 73 203 0.0 0.0 0.00 0.00 0.00 59 1005.1
20260505024454 74 218 1.0 2.0 0.00 0.00 0.00 59 1005.2
20260505023952 74 221 2.0 2.0 0.00 0.00 0.00 57 1005.0
20260505023448 74 208 1.0 2.0 0.00 0.00 0.00 57 1004.9
20260505022946 74 177 3.0 5.0 0.00 0.00 0.00 59 1005.0
20260505022444 74 222 4.0 5.0 0.00 0.00 0.00 58 1004.8
20260505021941 74 200 2.0 2.0 0.00 0.00 0.00 59 1004.7
20260505021437 74 205 0.0 0.0 0.00 0.00 0.00 63 1004.9
20260505020933 74 197 0.0 0.0 0.00 0.00 0.00 61 1004.7
20260505020428 74 197 4.0 5.0 0.00 0.00 0.00 57 1004.6
20260505015925 74 201 0.0 0.0 0.00 0.00 0.00 59 1004.4
20260505015422 74 211 1.0 2.0 0.00 0.00 0.00 61 1004.4
20260505014920 74 200 0.0 0.0 0.00 0.00 0.00 62 1004.0
20260505014416 74 200 3.0 3.0 0.00 0.00 0.00 59 1004.2
20260505013913 74 175 3.0 3.0 0.00 0.00 0.00 61 1003.9
20260505013410 73 208 1.0 1.0 0.00 0.00 0.00 65 1004.0
20260505012908 73 199 0.0 0.0 0.00 0.00 0.00 65 1004.0
20260505012406 74 186 0.0 0.0 0.00 0.00 0.00 62 1003.9
20260505011902 74 186 0.0 0.0 0.00 0.00 0.00 63 1004.1
20260505011359 74 185 0.0 0.0 0.00 0.00 0.00 61 1003.9
20260505010855 75 171 0.0 0.0 0.00 0.00 0.00 61 1003.7
20260505010351 75 185 0.0 0.0 0.00 0.00 0.00 60 1003.9
20260505005847 75 193 1.0 1.0 0.00 0.00 0.00 59 1003.5
20260505005344 76 198 1.0 2.0 0.00 0.00 0.00 60 1003.6
20260505004842 76 204 3.0 3.0 0.00 0.00 0.00 55 1003.6
20260505004338 77 194 2.0 2.0 0.00 0.00 0.00 58 1003.4
20260505003835 76 210 3.0 3.0 0.00 0.00 0.00 56 1003.3
20260505003333 77 204 1.0 1.0 0.00 0.00 0.00 59 1003.4
20260505002828 77 212 0.0 0.0 0.00 0.00 0.00 56 1003.3
20260505002325 77 190 1.0 1.0 0.00 0.00 0.00 57 1003.4
20260505001824 77 211 3.0 3.0 0.00 0.00 0.00 55 1003.1
20260505001320 77 177 4.0 5.0 0.00 0.00 0.00 55 1003.3
20260505000818 77 190 3.0 3.0 0.00 0.00 0.00 57 1003.5
20260505000315 78 210 3.0 3.0 0.00 0.00 0.00 53 1003.6
20260504235812 78 211 5.0 6.0 0.00 0.00 0.00 52 1003.2
20260504235309 78 201 5.0 7.0 0.00 0.00 0.00 51 1003.3
20260504234806 78 187 4.0 5.0 0.00 0.00 0.00 51 1003.1
20260504234303 78 187 4.0 5.0 0.00 0.00 0.00 53 1003.1
20260504233759 78 179 6.0 7.0 0.00 0.00 0.00 51 1003.3
20260504233255 78 211 4.0 6.0 0.00 0.00 0.00 54 1003.2
20260504232752 78 210 3.0 3.0 0.00 0.00 0.00 52 1003.3
20260504232249 79 204 8.0 10.0 0.00 0.00 0.00 50 1003.4
20260504231746 79 194 9.0 9.0 0.00 0.00 0.00 50 1003.6
20260504231242 79 221 5.0 6.0 0.00 0.00 0.00 52 1003.3
20260504230738 79 180 6.0 8.0 0.00 0.00 0.00 50 1003.4
20260504230237 79 192 7.0 8.0 0.00 0.00 0.00 51 1003.5
20260504225736 80 211 7.0 8.0 0.00 0.00 0.00 50 1003.4
20260504225231 80 226 5.0 6.0 0.00 0.00 0.00 49 1003.5
20260504224729 80 221 6.0 7.0 0.00 0.00 0.00 49 1003.5
20260504224226 80 233 3.0 3.0 0.00 0.00 0.00 50 1003.3
20260504223722 81 248 5.0 6.0 0.00 0.00 0.00 49 1003.4
20260504223218 81 236 6.0 8.0 0.00 0.00 0.00 47 1003.4
20260504222715 81 211 5.0 6.0 0.00 0.00 0.00 48 1003.2
20260504222212 81 255 5.0 6.0 0.00 0.00 0.00 48 1003.4
20260504221709 81 205 7.0 10.0 0.00 0.00 0.00 47 1003.3
20260504221206 81 264 11.0 13.0 0.00 0.00 0.00 47 1003.4
20260504220702 81 216 11.0 14.0 0.00 0.00 0.00 46 1003.5
20260504220200 82 201 10.0 11.0 0.00 0.00 0.00 46 1003.2
20260504215656 81 195 9.0 11.0 0.00 0.00 0.00 45 1003.7
20260504215154 81 194 10.0 13.0 0.00 0.00 0.00 46 1003.6
20260504214649 81 201 7.0 9.0 0.00 0.00 0.00 46 1003.5
20260504214146 81 198 7.0 10.0 0.00 0.00 0.00 45 1003.6
20260504213642 81 243 13.0 15.0 0.00 0.00 0.00 47 1003.8
20260504213139 82 209 4.0 6.0 0.00 0.00 0.00 45 1003.6
20260504212636 82 193 9.0 11.0 0.00 0.00 0.00 46 1003.7
20260504212132 82 225 6.0 9.0 0.00 0.00 0.00 45 1003.6
20260504211630 82 225 7.0 9.0 0.00 0.00 0.00 45 1003.8
20260504211126 82 255 10.0 13.0 0.00 0.00 0.00 45 1003.8
20260504210624 82 196 8.0 11.0 0.00 0.00 0.00 46 1003.7
20260504210120 82 197 8.0 10.0 0.00 0.00 0.00 46 1003.8
20260504205618 81 203 9.0 11.0 0.00 0.00 0.00 46 1003.9
20260504205115 82 209 5.0 6.0 0.00 0.00 0.00 48 1003.8
20260504204614 82 184 7.0 8.0 0.00 0.00 0.00 46 1003.7
20260504204112 82 230 8.0 8.0 0.00 0.00 0.00 46 1003.9
20260504203611 82 236 6.0 6.0 0.00 0.00 0.00 48 1004.0
20260504203108 81 219 6.0 7.0 0.00 0.00 0.00 50 1003.7
20260504202603 82 216 5.0 7.0 0.00 0.00 0.00 47 1004.3
20260504202100 81 223 8.0 11.0 0.00 0.00 0.00 47 1004.2
20260504201557 81 213 13.0 15.0 0.00 0.00 0.00 46 1004.1
20260504201055 81 225 7.0 9.0 0.00 0.00 0.00 50 1004.1
20260504200550 81 189 4.0 5.0 0.00 0.00 0.00 47 1004.1
20260504200048 81 233 4.0 6.0 0.00 0.00 0.00 48 1004.3
20260504195544 81 201 7.0 9.0 0.00 0.00 0.00 45 1004.2
20260504195040 81 247 7.0 9.0 0.00 0.00 0.00 49 1004.6
20260504194537 81 195 6.0 7.0 0.00 0.00 0.00 51 1004.6
20260504194032 81 214 4.0 6.0 0.00 0.00 0.00 48 1004.6
20260504193529 81 225 7.0 8.0 0.00 0.00 0.00 50 1004.5
20260504193028 81 202 6.0 7.0 0.00 0.00 0.00 51 1004.7
20260504192526 80 208 9.0 11.0 0.00 0.00 0.00 49 1004.6
20260504192024 80 224 7.0 10.0 0.00 0.00 0.00 51 1004.7
20260504191521 80 207 5.0 6.0 0.00 0.00 0.00 50 1004.7
20260504191017 79 212 8.0 13.0 0.00 0.00 0.00 48 1004.8
20260504190514 79 224 6.0 8.0 0.00 0.00 0.00 50 1004.8
20260504190010 79 262 5.0 8.0 0.00 0.00 0.00 50 1004.9
20260504185507 79 256 10.0 13.0 0.00 0.00 0.00 50 1004.7
20260504185004 79 244 5.0 6.0 0.00 0.00 0.00 54 1004.8
20260504184459 79 216 5.0 6.0 0.00 0.00 0.00 49 1005.0
20260504183955 79 235 5.0 6.0 0.00 0.00 0.00 54 1005.0
20260504183452 78 213 4.0 5.0 0.00 0.00 0.00 54 1004.8
20260504182950 78 271 5.0 6.0 0.00 0.00 0.00 53 1005.2
20260504182446 78 228 5.0 6.0 0.00 0.00 0.00 52 1005.0
20260504181944 78 179 5.0 7.0 0.00 0.00 0.00 51 1004.7
20260504181441 77 205 5.0 6.0 0.00 0.00 0.00 51 1004.9